K5DLF-13 Weather Reports


time (UTC)temp
C
wind
direction
speed
KPH
gust
KPH
rain 1hr
cm
rain 24hr
cm
rain mn
cm
humidity
%
barometer
mb
20260502182504 23 333 6.4 20.9 0.00 0.25 0.03 50 1017.1
20260502182004 23 340 6.4 20.9 0.00 0.25 0.03 50 1017.4
20260502181504 23 0 4.8 14.5 0.00 0.25 0.03 50 1017.3
20260502181004 23 355 4.8 19.3 0.00 0.25 0.03 49 1017.4
20260502180504 23 12 4.8 11.3 0.00 0.25 0.03 52 1017.3
20260502170504 22 351 3.2 19.3 0.00 0.25 0.03 57 1017.5
20260502164004 22 22 4.8 19.3 0.00 0.25 0.03 60 1017.5
20260502163505 21 29 4.8 19.3 0.03 0.25 0.03 62 1017.4
20260502163005 21 348 3.2 16.1 0.03 0.25 0.03 61 1017.4
20260502162505 21 18 3.2 17.7 0.03 0.25 0.03 64 1017.4
20260502162005 21 0 4.8 16.1 0.03 0.25 0.03 65 1017.3
20260502161505 21 294 4.8 20.9 0.03 0.25 0.03 63 1017.1
20260502161005 21 19 3.2 14.5 0.03 0.25 0.03 66 1017.2
20260502160505 21 5 1.6 8.0 0.03 0.25 0.03 68 1017.2
20260502152005 19 46 3.2 9.7 0.00 0.23 0.00 77 1017.5
20260502151505 18 52 3.2 12.9 0.00 0.23 5.99 76 1017.4
20260502151005 18 9 3.2 14.5 0.00 0.23 5.99 78 1017.3
20260502150505 18 20 3.2 12.9 0.00 0.23 5.99 78 1017.4
20260502130505 13 19 3.2 8.0 0.00 0.23 5.99 93 1016.0
20260502123505 12 10 3.2 8.0 0.00 0.23 5.99 93 1015.7
20260502123005 12 14 3.2 8.0 0.00 0.23 5.99 93 1015.7
20260502122505 12 14 3.2 12.9 0.00 0.23 5.99 93 1015.6
20260502122005 12 11 3.2 8.0 0.00 0.23 5.99 93 1015.5
20260502121505 12 10 3.2 9.7 0.00 0.23 5.99 93 1015.4
20260502121005 12 5 3.2 8.0 0.00 0.23 5.99 93 1015.4
20260502120736 12 9 3.2 12.9 0.00 0.23 5.99 93 1015.3
20260502120505 12 9 3.2 12.9 0.00 0.23 5.99 93 1015.3
20260502115505 12 0 1.6 4.8 0.00 0.23 5.99 92 1015.2
20260502115005 12 0 3.2 4.8 0.00 0.23 5.99 92 1015.1
20260502114658 12 0 3.2 17.7 0.00 0.23 5.99 92 1015.0
20260502114505 12 0 3.2 17.7 0.00 0.23 5.99 92 1015.0
20260502114005 12 355 3.2 8.0 0.00 0.23 5.99 92 1014.9
20260502113505 12 345 3.2 11.3 0.00 0.23 5.99 92 1014.8
20260502113005 12 5 1.6 6.4 0.00 0.23 5.99 92 1014.8
20260502112505 12 5 3.2 9.7 0.00 0.23 5.99 91 1014.6
20260502112005 12 5 3.2 6.4 0.00 0.23 5.99 91 1014.7
20260502111505 12 5 4.8 16.1 0.00 0.23 5.99 91 1014.6
20260502111005 12 349 4.8 12.9 0.00 0.23 5.99 91 1014.5
20260502110505 12 32 4.8 9.7 0.00 0.23 5.99 91 1014.5
20260502110005 12 30 4.8 9.7 0.00 0.23 5.99 91 1014.5
20260502105505 12 40 3.2 14.5 0.00 0.23 5.99 91 1014.5
20260502105005 12 11 3.2 11.3 0.00 0.23 5.99 91 1014.4
20260502104505 12 5 1.6 12.9 0.00 0.23 5.99 92 1014.4
20260502104005 12 9 1.6 6.4 0.00 0.23 5.99 92 1014.3
20260502103505 12 9 0.0 4.8 0.00 0.23 5.99 92 1014.2
20260502103005 12 9 0.0 0.0 0.00 0.23 5.99 92 1014.0
20260502102505 12 9 1.6 6.4 0.00 0.23 5.99 91 1014.0
20260502102005 12 5 3.2 6.4 0.00 0.23 5.99 91 1013.9
20260502101505 12 5 3.2 6.4 0.00 0.23 5.99 92 1013.8
20260502101005 12 5 3.2 12.9 0.00 0.23 5.99 92 1013.7
20260502100505 12 9 3.2 11.3 0.00 0.23 5.99 92 1013.5
20260502091505 12 5 4.8 16.1 0.00 0.23 5.99 92 1013.0
20260502091005 12 5 4.8 16.1 0.00 0.23 5.99 92 1012.8
20260502090505 12 0 4.8 12.9 0.00 0.23 5.99 92 1012.9
20260502071505 13 11 4.8 16.1 0.00 0.23 5.99 96 1012.8
20260502071006 13 17 3.2 11.3 0.00 0.23 5.99 96 1012.8
20260502070505 13 11 3.2 9.7 0.00 0.23 5.99 96 1012.9
20260502070005 13 19 3.2 11.3 0.00 0.23 5.99 96 1012.7
20260502065506 13 355 3.2 11.3 0.00 0.23 5.99 96 1012.6
20260502065006 13 355 4.8 14.5 0.00 0.23 5.99 96 1012.6
20260502064506 13 11 4.8 12.9 0.00 0.23 5.99 96 1012.6
20260502064006 13 5 4.8 12.9 0.00 0.23 5.99 96 1012.4
20260502063506 13 355 4.8 12.9 0.00 0.23 5.99 96 1012.4
20260502063006 13 38 4.8 14.5 0.00 0.23 5.99 96 1012.5
20260502062506 13 346 4.8 16.1 0.00 0.23 5.99 96 1012.4
20260502062006 13 0 4.8 25.7 0.00 0.23 5.99 96 1012.3
20260502061506 13 29 4.8 12.9 0.00 0.23 5.99 96 1012.4
20260502061006 13 5 6.4 14.5 0.00 0.23 5.99 96 1012.4
20260502060506 13 5 6.4 14.5 0.00 0.23 5.99 96 1012.4
20260502060006 13 55 8.0 20.9 0.00 0.23 5.99 96 1012.4
20260502055506 13 9 6.4 17.7 0.00 0.23 5.99 96 1012.4
20260502055006 13 38 6.4 17.7 0.00 0.23 5.99 96 1012.5
20260502054506 13 22 6.4 16.1 0.00 0.23 5.99 96 1012.5
20260502054006 13 20 6.4 17.7 0.00 0.23 5.99 96 1012.5
20260502053506 13 0 6.4 16.1 0.00 0.23 5.99 96 1012.7
20260502053006 13 5 4.8 14.5 0.00 0.23 5.99 96 1012.7
20260502052506 13 15 3.2 16.1 0.00 0.23 5.99 96 1013.0
20260502052006 13 12 6.4 14.5 0.00 0.23 5.99 96 1013.0
20260502051506 13 17 8.0 24.1 0.00 0.23 5.99 96 1012.6
20260502051006 13 9 6.4 16.1 0.00 0.23 5.99 96 1012.6
20260502050506 13 36 8.0 17.7 0.00 0.23 5.99 96 1012.6
20260502050006 13 80 8.0 16.1 0.00 0.23 5.99 96 1012.6
20260502045506 13 54 6.4 16.1 0.00 0.23 5.99 96 1012.7
20260502045006 13 5 6.4 19.3 0.00 0.23 5.99 96 1012.7
20260502044506 13 350 4.8 16.1 0.00 0.23 5.99 96 1012.6
20260502044006 13 9 4.8 14.5 0.00 0.23 5.99 96 1012.7
20260502043506 13 15 4.8 14.5 0.00 0.23 5.99 96 1012.6
20260502043006 13 22 4.8 11.3 0.00 0.23 5.99 96 1012.7
20260502042506 13 5 3.2 14.5 0.00 0.23 5.99 96 1012.6
20260502042006 13 5 3.2 14.5 0.00 0.23 5.99 96 1012.6
20260502041506 13 355 3.2 12.9 0.00 0.23 5.99 96 1012.6
20260502041006 13 0 3.2 12.9 0.00 0.23 5.99 96 1012.5
20260502040506 13 0 4.8 12.9 0.00 0.23 5.99 96 1012.5
20260502040006 13 355 4.8 14.5 0.03 0.23 5.99 96 1012.5
20260502035506 13 14 4.8 16.1 0.10 0.23 5.99 96 1012.1
20260502035006 13 355 4.8 17.7 0.13 0.23 5.99 96 1012.0
20260502034506 14 5 4.8 17.7 0.13 0.23 5.99 96 1011.8
20260502034006 14 9 4.8 17.7 0.13 0.23 5.99 96 1011.7
20260502033506 14 35 4.8 16.1 0.13 0.23 5.99 96 1011.7
20260502033006 14 33 4.8 14.5 0.15 0.23 5.99 96 1011.5
20260502032506 14 17 4.8 12.9 0.18 0.23 5.99 96 1011.4
20260502032006 14 10 4.8 17.7 0.18 0.23 5.99 96 1011.2
20260502031506 14 12 3.2 16.1 0.18 0.23 5.99 96 1011.2
20260502031006 14 31 3.2 14.5 0.20 0.23 5.99 97 1010.8
20260502030506 14 0 4.8 14.5 0.20 0.23 5.99 97 1010.5
20260502030006 14 0 6.4 20.9 0.18 0.20 5.97 96 1010.5
20260502025506 15 15 6.4 19.3 0.10 0.13 5.89 96 1010.3
20260502025006 15 355 3.2 14.5 0.08 0.10 5.87 97 1010.5
20260502024506 15 19 0.0 11.3 0.08 0.10 5.87 97 1010.7
20260502024006 15 22 1.6 6.4 0.10 0.10 5.87 97 1010.8
20260502023506 15 19 1.6 8.0 0.10 0.10 5.87 97 1010.9
20260502023006 15 20 3.2 8.0 0.08 0.08 5.84 97 1010.7
20260502022506 15 15 3.2 11.3 0.05 0.05 5.82 97 1010.8
20260502022006 15 9 3.2 16.1 0.05 0.05 5.82 97 1010.8
20260502021506 15 21 3.2 12.9 0.05 0.05 5.82 97 1010.6
20260502021006 15 9 3.2 14.5 0.03 0.03 5.79 96 1010.5
20260502020506 15 18 3.2 14.5 0.03 0.03 5.79 96 1010.7
20260502020006 15 5 3.2 8.0 0.03 0.03 5.79 96 1010.7
20260502015506 15 11 3.2 11.3 0.03 0.03 5.79 96 1010.4
20260502015006 15 355 1.6 11.3 0.03 0.03 5.79 97 1010.3
20260502014506 15 5 1.6 12.9 0.03 0.03 5.79 97 1010.4
20260502014006 15 5 0.0 4.8 0.00 0.00 5.77 97 1010.1
20260502011424 15 355 1.6 6.4 0.43 6.02 5.69 97 1009.2
20260502010924 15 23 4.8 14.5 0.41 6.15 5.66 97 1008.9
20260502010424 15 0 4.8 12.9 0.41 6.15 5.66 97 1008.3
20260502005924 15 38 4.8 14.5 0.41 6.15 5.66 96 1008.1
20260502005424 15 26 4.8 12.9 0.41 6.12 5.64 96 1007.9
20260502004924 15 10 6.4 16.1 0.38 6.10 5.61 96 1008.1
20260502004424 15 5 6.4 17.7 0.33 6.02 5.54 96 1008.1
20260502003924 15 279 4.8 16.1 0.25 5.94 5.46 97 1008.3
20260502003424 15 347 4.8 11.3 0.15 5.84 5.36 97 1008.6
20260502002924 15 40 3.2 14.5 0.10 5.79 5.31 97 1008.4
20260502002424 15 351 4.8 6.4 0.13 5.79 5.31 97 1008.4
20260502001924 15 23 6.4 17.7 0.15 5.77 5.28 96 1008.2
20260502001424 15 0 6.4 16.1 0.15 5.74 5.26 96 1007.8
20260502000924 15 348 6.4 17.7 0.15 6.15 5.26 96 1007.0
20260502000424 15 5 6.4 17.7 0.15 6.15 5.26 96 1007.4
20260501235924 15 22 6.4 16.1 0.15 6.15 5.26 96 1007.8
20260501235424 16 355 6.4 22.5 0.13 6.12 5.23 96 1007.9
20260501234924 16 5 8.0 17.7 0.15 6.12 5.23 97 1007.8
20260501234424 16 26 6.4 19.3 0.13 6.10 5.21 97 1007.8
20260501233924 16 27 6.4 14.5 0.13 6.10 5.21 96 1007.5
20260501233424 16 5 6.4 19.3 0.15 6.10 5.21 96 1007.3
20260501232924 16 32 6.4 19.3 0.15 6.10 5.21 96 1006.9
20260501232424 16 11 4.8 17.7 0.13 6.07 5.18 97 1006.7
20260501231924 16 19 4.8 17.7 0.08 6.02 5.13 97 1006.7
20260501231424 16 5 4.8 14.5 0.05 5.99 5.11 97 1006.8
20260501230924 16 17 6.4 19.3 0.05 6.22 5.11 97 1006.8
20260501230424 16 9 6.4 16.1 0.05 6.22 5.11 97 1006.7
20260501225924 16 5 6.4 24.1 0.05 6.22 5.11 97 1006.7
20260501225424 16 0 4.8 17.7 0.08 6.22 5.11 97 1006.9
20260501224924 16 0 3.2 12.9 0.05 6.20 5.08 96 1007.3
20260501224424 16 40 3.2 9.7 0.05 6.20 5.08 96 1007.5
20260501223924 16 5 4.8 17.7 0.05 6.20 5.08 97 1007.5
20260501223424 16 355 6.4 24.1 0.05 6.17 5.05 97 1007.4
20260501222924 16 5 4.8 17.7 0.08 6.17 5.05 96 1007.3
20260501222424 16 13 3.2 16.1 0.13 6.17 5.05 97 1007.9
20260501221924 17 30 4.8 14.5 0.25 6.17 5.05 96 1008.0
20260501221424 17 5 4.8 16.1 0.33 6.17 5.05 97 1007.9
20260501220924 17 5 4.8 16.1 0.38 6.17 5.05 97 1007.8
20260501220424 17 5 4.8 16.1 0.43 6.17 5.05 97 1007.6
20260501215924 17 11 3.2 14.5 0.48 6.17 5.05 97 1007.4
20260501215424 17 351 3.2 17.7 0.48 6.15 5.03 97 1007.7
20260501214924 17 5 3.2 14.5 0.51 6.15 5.03 97 1007.2
20260501214424 17 9 3.2 12.9 0.53 6.15 5.03 97 1007.4
20260501213924 17 40 3.2 11.3 0.56 6.15 5.03 97 1007.6
20260501213424 17 47 6.4 14.5 0.58 6.12 5.00 97 1007.3
20260501212924 17 41 6.4 17.7 0.58 6.10 4.98 96 1006.5
20260501212424 17 5 4.8 16.1 0.61 6.05 4.93 96 1006.0
20260501211924 17 42 3.2 11.3 0.76 5.92 4.80 97 1006.8
20260501211424 17 24 4.8 12.9 0.86 5.84 4.72 97 1007.8
20260501210924 17 355 6.4 16.1 1.07 5.79 4.67 96 1007.3
20260501210424 17 92 6.4 20.9 1.02 5.74 4.62 96 1007.0
20260501205924 17 18 6.4 14.5 0.99 5.69 4.57 97 1007.0
20260501205424 17 47 4.8 17.7 1.04 5.66 4.55 97 1006.7
20260501204924 17 26 1.6 14.5 1.24 5.64 4.52 97 1006.8
20260501204424 17 42 3.2 6.4 1.60 5.61 4.50 97 1006.7
20260501203924 17 42 4.8 9.7 1.91 5.59 4.47 96 1006.6
20260501203424 17 38 4.8 19.3 1.93 5.54 4.42 96 1006.3
20260501202924 17 51 3.2 14.5 1.91 5.51 4.39 96 1005.8
20260501202425 17 42 4.8 9.7 1.88 5.44 4.32 96 1006.0
20260501201924 17 86 3.2 9.7 1.63 5.16 4.04 96 1005.2
20260501201425 17 42 1.6 6.4 1.45 4.98 3.86 96 1006.0
20260501200925 17 13 3.2 14.5 1.19 4.72 3.61 96 1006.5
20260501200425 17 14 4.8 14.5 1.19 4.72 3.61 96 1005.9
20260501195925 17 5 6.4 14.5 1.17 4.70 3.58 96 1005.9
20260501195425 17 40 8.0 17.7 1.09 4.62 3.51 96 1005.8
20260501194925 17 52 4.8 17.7 0.86 4.39 3.28 96 1005.3
20260501194425 17 70 1.6 11.3 0.48 4.01 2.90 96 1005.5
20260501193925 17 355 0.0 0.0 0.15 3.68 2.57 96 1007.4
20260501193425 17 355 3.2 12.9 0.08 3.61 2.49 96 1007.5
20260501192925 17 44 6.4 17.7 0.08 3.61 2.49 96 1006.1
20260501192425 17 11 6.4 20.9 0.03 3.56 2.44 96 1005.4
20260501191925 17 51 3.2 19.3 0.00 3.53 2.41 96 1005.9
20260501191425 17 48 3.2 12.9 0.00 3.53 2.41 96 1006.0
20260501190925 17 5 3.2 9.7 0.00 3.53 2.41 96 1006.5
20260501190425 17 5 4.8 14.5 0.00 3.53 2.41 96 1006.9
20260501185925 17 42 6.4 14.5 0.00 3.53 2.41 96 1006.5
20260501185425 17 51 4.8 17.7 0.00 3.53 2.41 96 1006.0
20260501184925 17 28 1.6 14.5 0.00 3.53 2.41 96 1006.1
20260501184425 17 18 1.6 6.4 0.00 3.53 2.41 96 1006.8
20260501183925 17 280 3.2 9.7 0.00 3.53 2.41 96 1007.1
20260501183425 17 281 3.2 16.1 0.00 3.53 2.41 96 1007.0
20260501182925 17 49 3.2 12.9 0.00 3.53 2.41 96 1006.3